Weather History for KBLM - April, 2014

Change the Weather History Date:

Sunday, April 20, 2014

  Actual Average Record
Temperature  
Mean Temperature 46 °F -  
Max Temperature 51 °F 59 °F 86 °F (2005)
Min Temperature 39 °F 42 °F 37 °F (2007)
Degree Days  
Heating Degree Days 19    
Moisture  
Dew Point 28 °F    
Average Humidity 50    
Maximum Humidity 66    
Minimum Humidity 40    
Precipitation  
Precipitation 0.00 in - - ()
Sea Level Pressure  
Sea Level Pressure 30.42 in    
Wind  
Wind Speed 10 mph (ENE)    
Max Wind Speed 17 mph    
Max Gust Speed 24 mph    
Visibility 10 miles    
Events      
Averages and records for this station are not official NWS values.
T = Trace of Precipitation, MM = Missing Value Source: NWS Daily Summary

Daily Weather History Graph

Daily Weather History Graph

Search for Another Location

Airport or City:

Trip Planner

Search our weather history database for the weather conditions in past years. The results will help you decide how hot, cold, wet, or windy it might be!

Date:

Astronomy

Apr. 20, 2014 Rise Set
Actual Time 6:11 AM EDT 7:40 PM EDT
Civil Twilight 5:42 AM EDT 8:08 PM EDT
Nautical Twilight 5:08 AM EDT 8:43 PM EDT
Astronomical Twilight 4:32 AM EDT 9:19 PM EDT
Moon 12:17 AM EDT (4/20) 10:28 AM EDT (4/20)
Length of Visible Light 14h 26m
Length of Day
13h 29m
Waning Gibbous, 69% of the Moon is Illuminated
Apr 20
Waning Gibbous
Apr 22
Last Quarter
Apr 29
New
May 6
First Quarter
May 14
Full

Hourly Weather History & Observations

Time (EDT) Temp. Windchill Dew Point Humidity Pressure Visibility Wind Dir Wind Speed Gust Speed Precip Events Conditions
12:15 AM 48.2 °F - 30.2 °F 50% 30.34 in 10.0 mi North 8.1 mph - N/A   Clear
12:35 AM 50.0 °F - 28.4 °F 43% 30.34 in 10.0 mi NNE 8.1 mph - N/A   Clear
12:55 AM 51.8 °F - 28.4 °F 41% 30.35 in 10.0 mi NNE 8.1 mph - N/A   Clear
1:15 AM 50.0 °F - 26.6 °F 40% 30.35 in 10.0 mi North 6.9 mph - N/A   Clear
1:35 AM 50.0 °F - 26.6 °F 40% 30.35 in 10.0 mi NNE 6.9 mph - N/A   Clear
1:55 AM 50.0 °F - 26.6 °F 40% 30.35 in 10.0 mi North 6.9 mph - N/A   Clear
2:15 AM 48.2 °F - 26.6 °F 43% 30.35 in 10.0 mi North 5.8 mph - N/A   Clear
2:35 AM 48.2 °F - 26.6 °F 43% 30.36 in 10.0 mi North 8.1 mph - N/A   Clear
2:55 AM 48.2 °F - 26.6 °F 43% 30.36 in 10.0 mi NNE 8.1 mph - N/A   Clear
3:15 AM 50.0 °F - 28.4 °F 43% 30.36 in 10.0 mi NE 11.5 mph 18.4 mph N/A   Clear
3:35 AM 48.2 °F - 30.2 °F 50% 30.36 in 10.0 mi NE 12.7 mph 18.4 mph N/A   Clear
3:55 AM 48.2 °F - 33.8 °F 58% 30.37 in 10.0 mi ENE 11.5 mph - N/A   Clear
4:15 AM 46.4 °F 40.4 °F 35.6 °F 66% 30.39 in 10.0 mi ENE 13.8 mph 19.6 mph N/A   Clear
4:35 AM 46.4 °F 40.4 °F 35.6 °F 66% 30.39 in 10.0 mi East 13.8 mph 19.6 mph N/A   Clear
4:55 AM 46.4 °F 40.7 °F 35.6 °F 66% 30.40 in 10.0 mi East 12.7 mph - N/A   Clear
5:15 AM 46.4 °F 40.1 °F 33.8 °F 62% 30.41 in 10.0 mi East 15.0 mph 20.7 mph N/A   Clear
5:35 AM 46.4 °F 41.1 °F 30.2 °F 53% 30.41 in 10.0 mi East 11.5 mph 21.9 mph N/A   Clear
5:55 AM 46.4 °F 40.7 °F 32.0 °F 57% 30.42 in 10.0 mi East 12.7 mph 21.9 mph N/A   Clear
6:15 AM 44.6 °F 37.8 °F 32.0 °F 61% 30.43 in 10.0 mi East 15.0 mph 21.9 mph N/A   Clear
6:35 AM 44.6 °F 38.8 °F 30.2 °F 57% 30.43 in 10.0 mi ENE 11.5 mph 18.4 mph N/A   Clear
6:55 AM 44.6 °F 38.8 °F 30.2 °F 57% 30.43 in 10.0 mi ENE 11.5 mph 18.4 mph N/A   Clear
7:15 AM 46.4 °F 40.4 °F 30.2 °F 53% 30.44 in 10.0 mi ENE 13.8 mph 18.4 mph N/A   Clear
7:35 AM 46.4 °F 41.1 °F 30.2 °F 53% 30.44 in 10.0 mi NE 11.5 mph 19.6 mph N/A   Clear
7:55 AM 46.4 °F 40.1 °F 28.4 °F 50% 30.45 in 10.0 mi ENE 15.0 mph 18.4 mph N/A   Clear
8:15 AM 46.4 °F 40.7 °F 28.4 °F 50% 30.45 in 10.0 mi ENE 12.7 mph 24.2 mph N/A   Clear
8:35 AM 46.4 °F 40.1 °F 28.4 °F 50% 30.46 in 10.0 mi ENE 15.0 mph 21.9 mph N/A   Clear
8:55 AM 46.4 °F 40.7 °F 30.2 °F 53% 30.47 in 10.0 mi ENE 12.7 mph 20.7 mph N/A   Clear
9:15 AM 46.4 °F 40.4 °F 28.4 °F 50% 30.47 in 10.0 mi ENE 13.8 mph 21.9 mph N/A   Clear
9:35 AM 46.4 °F 40.1 °F 28.4 °F 50% 30.48 in 10.0 mi East 15.0 mph 24.2 mph N/A   Clear
9:55 AM 46.4 °F 40.7 °F 28.4 °F 50% 30.48 in 10.0 mi ENE 12.7 mph 18.4 mph N/A   Clear
10:15 AM 46.4 °F 40.1 °F 28.4 °F 50% 30.49 in 10.0 mi East 15.0 mph 23.0 mph N/A   Clear
10:35 AM 46.4 °F 41.1 °F 28.4 °F 50% 30.49 in 10.0 mi East 11.5 mph - N/A   Clear
10:55 AM 46.4 °F 40.7 °F 28.4 °F 50% 30.49 in 10.0 mi ENE 12.7 mph 19.6 mph N/A   Clear
11:15 AM 48.2 °F - 28.4 °F 46% 30.49 in 10.0 mi East 15.0 mph - N/A   Clear
11:35 AM 48.2 °F - 28.4 °F 46% 30.50 in 10.0 mi East 16.1 mph - N/A   Clear
11:55 AM 48.2 °F - 28.4 °F 46% 30.50 in 10.0 mi East 13.8 mph 19.6 mph N/A   Clear
12:15 PM 48.2 °F - 28.4 °F 46% 30.50 in 10.0 mi East 12.7 mph 18.4 mph N/A   Clear
12:35 PM 48.2 °F - 28.4 °F 46% 30.50 in 10.0 mi East 16.1 mph 21.9 mph N/A   Clear
12:55 PM 48.2 °F - 26.6 °F 43% 30.49 in 10.0 mi East 16.1 mph - N/A   Clear
1:15 PM 48.2 °F - 26.6 °F 43% 30.48 in 10.0 mi East 11.5 mph 23.0 mph N/A   Clear
1:35 PM 48.2 °F - 26.6 °F 43% 30.47 in 10.0 mi East 15.0 mph 20.7 mph N/A   Clear
1:55 PM 48.2 °F - 26.6 °F 43% 30.47 in 10.0 mi ESE 16.1 mph 21.9 mph N/A   Clear
2:15 PM 48.2 °F - 26.6 °F 43% 30.47 in 10.0 mi ESE 17.3 mph - N/A   Clear
2:35 PM 48.2 °F - 26.6 °F 43% 30.46 in 10.0 mi ESE 15.0 mph - N/A   Clear
2:55 PM 48.2 °F - 26.6 °F 43% 30.46 in 10.0 mi ESE 13.8 mph - N/A   Clear
3:15 PM 48.2 °F - 28.4 °F 46% 30.45 in 10.0 mi East 10.4 mph 16.1 mph N/A   Clear
3:35 PM 48.2 °F - 28.4 °F 46% 30.45 in 10.0 mi East 11.5 mph - N/A   Clear
3:55 PM 48.2 °F - 28.4 °F 46% 30.44 in 10.0 mi ESE 11.5 mph - N/A   Clear
4:15 PM 48.2 °F - 28.4 °F 46% 30.44 in 10.0 mi East 10.4 mph - N/A   Clear
4:35 PM 48.2 °F - 28.4 °F 46% 30.44 in 10.0 mi East 12.7 mph - N/A   Clear
4:55 PM 48.2 °F - 26.6 °F 43% 30.43 in 10.0 mi East 12.7 mph - N/A   Clear
5:15 PM 48.2 °F - 26.6 °F 43% 30.43 in 10.0 mi East 13.8 mph - N/A   Clear
5:35 PM 46.4 °F 41.1 °F 24.8 °F 43% 30.43 in 10.0 mi East 11.5 mph 17.3 mph N/A   Clear
5:55 PM 46.4 °F 40.7 °F 24.8 °F 43% 30.43 in 10.0 mi East 12.7 mph - N/A   Clear
6:15 PM 46.4 °F 41.5 °F 24.8 °F 43% 30.42 in 10.0 mi East 10.4 mph - N/A   Clear
6:35 PM 46.4 °F 41.5 °F 24.8 °F 43% 30.41 in 10.0 mi East 10.4 mph - N/A   Clear
7:15 PM 44.6 °F 39.7 °F 26.6 °F 49% 30.40 in 10.0 mi East 9.2 mph - N/A   Clear
7:35 PM 44.6 °F 40.7 °F 24.8 °F 46% 30.40 in 10.0 mi East 6.9 mph - N/A   Clear
7:55 PM 44.6 °F 42.2 °F 24.8 °F 46% 30.39 in 10.0 mi ENE 4.6 mph - N/A   Clear
8:15 PM 44.6 °F 43.1 °F 26.6 °F 49% 30.38 in 10.0 mi ENE 3.5 mph - N/A   Clear
8:35 PM 42.8 °F 39.3 °F 26.6 °F 53% 30.38 in 10.0 mi NE 5.8 mph - N/A   Clear
8:55 PM 42.8 °F 41.1 °F 26.6 °F 53% 30.38 in 10.0 mi NE 3.5 mph - N/A   Clear
9:15 PM 42.8 °F 41.1 °F 26.6 °F 53% 30.38 in 10.0 mi NNE 3.5 mph - N/A   Clear
9:35 PM 42.8 °F 41.1 °F 26.6 °F 53% 30.37 in 10.0 mi NE 3.5 mph - N/A   Clear
9:55 PM 42.8 °F 41.1 °F 26.6 °F 53% 30.37 in 10.0 mi NNE 3.5 mph - N/A   Clear
10:15 PM 41.0 °F 38.0 °F 26.6 °F 57% 30.36 in 10.0 mi NNE 4.6 mph - N/A   Clear
10:35 PM 41.0 °F 39.0 °F 26.6 °F 57% 30.35 in 10.0 mi NNE 3.5 mph - N/A   Clear
10:55 PM 41.0 °F 38.0 °F 28.4 °F 61% 30.35 in 10.0 mi NE 4.6 mph - N/A   Clear
11:15 PM 41.0 °F 38.0 °F 28.4 °F 61% 30.34 in 10.0 mi NNE 4.6 mph - N/A   Clear
11:35 PM 41.0 °F 38.0 °F 28.4 °F 61% 30.33 in 10.0 mi NNE 4.6 mph - N/A   Clear
11:55 PM 39.2 °F 35.9 °F 28.4 °F 65% 30.32 in 10.0 mi North 4.6 mph - N/A   Clear